Hourly Data Report for June 09, 2004

TORONTO CITY
ONTARIO

43°40'00.000" N
79°24'00.000" W
112.50 m
6158355
71508
XTO

Download Data

Hourly Data (June 2004)
Hourly Data Report for June 9, 2004
TIME
LST
Temp Definition
°C
Dew Point Definition
°C
Rel Hum Definition
%
Precip. Amount Definition
mm

Wind Dir Definition
10's deg

Wind Spd Definition
km/h
Visibility Definition
km
Stn Press Definition
kPa
Hmdx Definition


Wind Chill Definition


Weather Definition


00:00 22.0 18.5 81   LegendMM LegendMM LegendMM 100.22 28   LegendNANA
01:00 21.0 18.0 83   LegendMM LegendMM LegendMM 100.18 27   LegendNANA
02:00 20.3 17.6 84   LegendMM LegendMM LegendMM 100.17 26   LegendNANA
03:00 19.8 17.4 86   LegendMM LegendMM LegendMM 100.17     LegendNANA
04:00 19.9 17.9 88   LegendMM LegendMM LegendMM 100.14     LegendNANA
05:00 19.8 17.8 88   LegendMM LegendMM LegendMM 100.15     LegendNANA
06:00 21.5 18.6 84   LegendMM LegendMM LegendMM 100.20 28   LegendNANA
07:00 25.6 21.0 76   LegendMM LegendMM LegendMM 100.21 34   LegendNANA
08:00 26.8 21.0 71   LegendMM LegendMM LegendMM 100.13 35   LegendNANA
09:00 27.9 21.6 69   LegendMM LegendMM LegendMM 100.08 37   LegendNANA
10:00 27.6 21.4 69   LegendMM LegendMM LegendMM 100.06 36   LegendNANA
11:00 27.9 21.7 69   LegendMM LegendMM LegendMM 100.10 37   LegendNANA
12:00 29.5 22.7 67   LegendMM LegendMM LegendMM 100.03 39   LegendNANA
13:00 31.8 21.9 56   LegendMM LegendMM LegendMM 99.91 41   LegendNANA
14:00 31.9 21.2 53   LegendMM LegendMM LegendMM 99.83 40   LegendNANA
15:00 28.2 21.4 67   LegendMM LegendMM LegendMM 99.90 37   LegendNANA
16:00 26.8 20.9 70   LegendMM LegendMM LegendMM 99.91 35   LegendNANA
17:00 26.5 19.6 66   LegendMM LegendMM LegendMM 99.96 34   LegendNANA
18:00 26.4 18.8 63   LegendMM LegendMM LegendMM 99.93 33   LegendNANA
19:00 25.8 15.9 54   LegendMM LegendMM LegendMM 99.90 30   LegendNANA
20:00 22.3 16.4 69   LegendMM LegendMM LegendMM 100.00 27   LegendNANA
21:00 21.8 16.8 73   LegendMM LegendMM LegendMM 100.11 27   LegendNANA
22:00 20.8 15.9 74   LegendMM LegendMM LegendMM 100.13 25   LegendNANA
23:00 19.8 16.1 79   LegendMM LegendMM LegendMM 100.13     LegendNANA

Notes on Data Quality.

Legend

  • E = Estimated
  • M = Missing
  • NA = Not Available*
  • [empty] = Indicates an unobserved value
Date modified: